Presure
214 238 257 304 324 269 242 238 228 215 210 212 206 248 231 225 233 225 229 236 229 235 201 199 190 177 176 191 174 179 176 177
227 255 304 410 283 248 239 227 211 204 213 205 259 233 233 231 228 227 226 230 208 242 221 198 195 191 177 179 188 198 172 177
188 303 351 347 238 243 222 212 205 212 207 212 252 218 222 236 224 216 227 230 244 234 212 207 195 194 195 188 177 173 170 181
301 289 370 237 204 225 215 202 206 210 199 250 233 214 217 232 219 212 236 219 229 215 211 206 201 186 194 188 189 175 180 185
282 377 238 210 228 218 204 212 204 210 216 267 222 217 225 217 211 207 227 217 213 213 203 204 200 194 186 190 174 161 182 191
307 313 243 202 167 213 204 191 203 213 218 243 206 223 214 214 206 208 203 212 208 199 203 194 187 186 194 185 182 181 187 189
342 222 211 228 215 202 206 192 200 207 208 266 211 210 202 215 209 203 214 211 199 204 197 192 187 190 184 185 179 179 185 177
287 238 233 208 215 204 204 195 189 202 205 243 213 205 213 220 206 204 208 202 197 192 188 186 188 179 186 184 185 182 185 191
231 229 223 195 208 210 204 204 192 198 203 256 236 204 214 211 207 211 195 195 206 196 183 178 181 183 178 191 177 179 185 173
232 229 218 212 201 202 209 201 186 197 203 195 285 202 209 201 209 204 208 207 194 178 190 193 193 193 198 182 189 173 187 186
227 192 221 210 202 199 203 188 201 193 199 194 274 206 195 193 200 201 207 196 189 211 200 201 195 193 187 189 192 193 187 188
223 212 211 211 201 198 201 189 203 192 193 192 193 256 200 191 194 194 200 202 195 196 191 194 210 210 207 207 205 202 198 192
215 213 201 209 195 193 192 192 197 196 202 184 191 183 220 232 200 190 186 182 184 200 199 186 178 178 178 175 190 193 191 191
211 212 206 206 191 205 195 195 194 202 196 194 184 187 195 196 210 206 199 190 191 185 186 186 186 183 182 181 177 179 176 183
212 201 209 199 190 202 200 197 186 199 187 197 193 179 180 183 186 187 191 194 216 213 198 194 193 189 187 183 182 182 180 182
202 202 198 197 195 197 187 192 206 193 193 186 194 198 184 183 179 181 189 190 185 185 192 198 210 213 215 216 212 214 214 214
199 195 199 184 194 191 189 189 183 197 191 187 192 194 200 189 180 172 174 167 180 163 199 194 194 184 179 172 183 181 182 186
205 190 193 195 191 195 188 189 178 183 193 193 199 200 197 202 201 199 189 196 202 196 177 172 188 198 195 161 158 201 200 201
209 198 191 191 194 185 188 185 193 191 188 184 184 187 186 188 193 195 197 200 195 195 196 189 185 182 186 192 190 184 186 191
Wind_Speed
69 67 72 57 44 36 33 27 26 28 33 27 32 28 29 30 27 28 32 45 51 48 57 55 52 41 37 44 40 42 38 36
61 71 57 34 36 35 26 26 29 34 26 27 25 27 29 26 28 28 29 32 38 46 56 60 59 55 41 42 44 39 39 38
48 61 44 30 34 29 28 27 32 26 27 27 27 28 27 25 26 27 26 29 35 41 46 55 54 56 49 45 47 41 38 41
59 46 34 36 36 29 26 30 29 27 29 21 26 28 26 25 25 23 27 29 32 41 44 48 50 46 45 46 49 44 45 46
46 35 35 36 34 29 30 27 30 24 20 26 24 24 24 24 24 22 30 35 32 41 42 41 38 42 45 47 40 45 47 49
36 38 43 35 34 30 31 35 29 17 15 26 23 26 22 28 28 28 30 32 33 31 37 36 40 44 51 50 49 47 50 48
44 41 37 39 36 35 33 35 30 19 15 27 26 24 23 29 28 27 35 29 29 32 34 38 43 49 48 49 46 44 47 41
43 49 44 34 38 36 34 37 32 20 17 19 29 28 25 29 28 33 28 28 31 30 30 36 42 44 50 52 52 52 51 55
45 48 46 36 38 40 37 34 31 25 19 15 32 29 28 26 30 33 32 32 42 42 44 44 46 48 37 52 38 41 47 39
53 49 46 42 40 41 36 34 34 27 19 23 30 29 29 25 27 31 34 37 37 35 46 56 61 57 56 49 52 44 55 53
56 30 51 43 41 42 39 35 31 30 24 20 12 32 27 26 29 30 31 30 36 49 52 55 54 52 44 49 55 57 55 58
55 46 47 45 42 42 39 37 31 35 31 26 22 17 33 31 31 29 32 31 35 39 36 39 53 58 58 58 58 57 60 60
53 50 45 45 43 42 42 37 37 32 29 32 30 31 23 29 34 32 33 35 36 38 39 41 41 43 43 43 46 50 52 55
54 51 47 44 43 46 44 41 39 36 37 35 35 30 26 26 25 31 38 39 41 42 44 45 47 48 49 50 50 51 51 56
55 49 50 44 44 44 43 41 44 42 38 33 35 37 33 31 33 35 36 37 37 46 51 52 54 54 55 53 54 55 56 58
48 48 47 48 48 45 47 45 44 41 38 39 38 37 42 40 39 39 39 40 42 42 42 42 41 39 40 41 46 47 49 51
52 50 50 48 47 49 49 47 45 42 44 44 43 40 40 45 45 46 43 42 44 41 44 46 46 44 48 50 52 54 55 57
56 55 53 49 49 52 51 51 45 46 46 46 44 42 41 42 42 44 48 45 42 44 53 48 43 43 48 47 46 52 55 56
58 59 54 52 52 53 54 53 54 50 49 41 45 45 45 45 45 47 48 47 48 48 47 54 55 56 57 54 57 61 61 61
Wind_Direction
283 288 288 284 270 255 242 227 234 239 250 251 260 235 231 239 225 230 232 231 231 227 224 231 236 240 238 248 245 252 253 252
286 291 287 241 254 224 214 227 236 246 247 255 247 227 229 234 230 229 232 226 227 216 216 226 233 238 244 251 252 252 250 261
275 287 272 219 229 206 223 227 237 243 247 251 214 238 234 220 224 233 231 209 204 203 212 218 229 236 241 243 242 244 245 264
284 275 207 226 254 222 219 237 241 242 253 228 212 234 236 212 223 230 214 209 205 202 205 213 221 240 237 239 242 235 255 262
274 214 215 241 221 217 228 225 241 242 243 206 221 223 217 205 216 219 194 196 204 195 209 214 216 221 235 237 248 238 256 255
243 221 205 244 254 215 225 248 236 234 239 206 237 211 213 207 213 205 213 202 202 200 204 213 222 226 225 241 247 256 260 265
216 214 231 210 214 227 218 245 235 232 229 208 221 223 232 217 210 224 204 205 210 207 204 213 225 228 240 246 250 255 258 259
206 200 201 227 207 217 215 237 250 229 230 217 220 232 225 203 216 216 212 210 209 220 223 230 230 241 238 243 248 253 260 262
200 207 205 248 215 211 217 219 234 232 229 224 209 229 216 213 211 209 224 220 198 204 223 240 242 243 240 244 247 257 262 261
199 197 209 211 220 220 211 222 251 223 224 239 197 219 209 225 215 218 220 219 227 245 230 225 231 241 250 246 253 251 264 267
199 229 202 209 215 222 218 235 218 225 215 222 173 204 216 226 225 228 223 227 236 223 230 234 245 252 260 261 260 262 263 266
203 215 209 207 215 221 218 237 217 228 220 218 215 178 209 219 221 224 232 234 236 241 244 247 243 247 251 254 260 264 267 271
204 207 214 207 218 225 230 227 228 224 213 233 220 231 204 212 221 229 235 246 245 240 241 246 254 258 261 267 262 265 267 267
203 206 211 206 219 219 228 227 228 219 223 221 237 231 223 223 214 223 236 244 244 250 253 254 256 259 262 266 269 267 270 266
202 207 208 208 218 221 221 224 238 225 248 223 224 241 235 235 230 230 228 229 228 233 241 247 252 256 260 264 266 267 269 270
208 208 208 210 216 218 230 230 223 236 235 242 231 225 232 230 243 243 236 239 245 246 244 243 239 240 243 246 249 250 252 255
208 211 212 224 217 221 227 231 234 228 233 240 240 239 233 234 240 253 253 260 251 265 243 249 252 259 259 262 260 262 263 263
201 214 213 216 220 225 229 232 240 239 234 236 234 238 241 238 239 241 242 239 240 242 252 259 253 245 249 275 277 253 254 257
202 210 217 219 222 229 234 238 237 237 239 244 245 243 244 246 243 243 243 243 241 242 241 248 252 258 257 255 257 263 264 264